{"data":{"norad_id":81535,"epoch":"2026-09-18T10:03:55.324512Z","epoch_age_seconds":194189,"freshness":"STALE","line1":"1 81535U          26261.41939033  .00000465  00000+0  20403-3 0  9997","line2":"2 81535  98.1766 325.4969 0234731  58.8612 303.5356 14.13977614426919","mean_motion":14.13977614,"eccentricity":0.0234731,"inclination_deg":98.1766,"raan_deg":325.4969,"arg_perigee_deg":58.8612,"mean_anomaly_deg":303.5356,"bstar":0.00020403,"rev_number":42691,"period_min":101.84036760854,"perigee_km":676.22426140695,"apogee_km":1015.3602899693,"semimajor_km":7223.9292756881,"source":"CELESTRAK","updated_at":"2026-09-20T09:00:32.390165Z"}}